[ hide orbit diagram ]
For accurate long-term ephemerides, please instead use our Horizons system.This orbit viewer was implemented using two-body methods, and hence should not be used for determining accurate long-term trajectories (over several years or decades) or planetary encounter circumstances.
Orbital Elements at Epoch 2459200.5 (2020-Dec-17.0) TDB
Reference: JPL 18 (heliocentric ecliptic J2000)
Element | Value | Uncertainty (1-sigma) | Units |
e | .1888160482086816 | 6.1033e-08 | |
a | 3.14497410801809 | 2.7495e-08 | au |
q | 2.551152525223491 | 1.9611e-07 | au |
i | 6.154096904929853 | 5.9539e-06 | deg |
node | 40.55711156692242 | 6.2289e-05 | deg |
peri | 320.6882517841665 | 6.3733e-05 | deg |
M | 128.474420677112 | 1.5317e-05 | deg |
tp | 2458473.493647621252 (2018-Dec-20.99364762) | 8.3496e-05 | TDB |
period | 2037.15483188768 5.58 | 2.6715e-05 7.314e-08 | d yr |
n | .1767170537874211 | 2.3175e-09 | deg/d |
Q | 3.738795690812689 | 3.2687e-08 | au |
|
| | Orbit Determination Parameters
Additional Information
|
[ show covariance matrix ]
Physical Parameter Table
Parameter |
Symbol |
Value |
Units |
Sigma |
Reference |
Notes |
absolute magnitude |
H |
15.3 |
|
n/a |
MPO379011 |
|
|
58037 (2002 VL109) Discovered 2002-Nov-12 by LINEAR at Socorro |
Reference: 20030318/Numbers.arc | Last Updated: 2004-04-19 |
|
[ show close-approach data ]
Alternate Designations
2002 VL109 = 1996 VV2 = 2000 HY97 = 2001 PR45 |
|
|